TimeCDT,TemperatureF,Dew PointF,Humidity,Sea Level PressureIn,VisibilityMPH,Wind Direction,Wind SpeedMPH,Gust SpeedMPH,PrecipitationIn,Events,Conditions,WindDirDegrees,DateUTC
12:53 AM,75.0,70.0,84,29.98,9.0,SSW,5.8,-,N/A,,Clear,200,2013-05-18 05:53:00
1:53 AM,73.0,69.1,87,29.97,10.0,South,5.8,-,N/A,,Clear,180,2013-05-18 06:53:00
2:53 AM,73.0,69.1,87,29.98,10.0,SSW,4.6,-,N/A,,Partly Cloudy,200,2013-05-18 07:53:00
3:08 AM,73.4,69.8,88,29.96,9.0,SSW,4.6,-,N/A,,Mostly Cloudy,200,2013-05-18 08:08:00
3:53 AM,73.9,69.1,85,29.99,10.0,SSW,6.9,-,N/A,,Overcast,200,2013-05-18 08:53:00
4:53 AM,73.0,69.1,87,29.99,8.0,South,5.8,-,N/A,,Overcast,180,2013-05-18 09:53:00
5:53 AM,72.0,69.1,91,30.01,7.0,South,4.6,-,N/A,,Overcast,170,2013-05-18 10:53:00
6:53 AM,73.0,70.0,90,30.03,6.0,Calm,Calm,-,N/A,,Overcast,0,2013-05-18 11:53:00
7:53 AM,73.9,70.0,87,30.05,6.0,SSE,3.5,-,N/A,,Overcast,160,2013-05-18 12:53:00
8:53 AM,75.0,70.0,84,30.07,6.0,SE,4.6,-,N/A,,Haze,140,2013-05-18 13:53:00
9:06 AM,75.2,71.6,89,30.05,7.0,SSE,5.8,-,N/A,,Overcast,160,2013-05-18 14:06:00
9:53 AM,78.1,72.0,81,30.06,7.0,South,9.2,-,N/A,,Overcast,180,2013-05-18 14:53:00
10:32 AM,78.8,71.6,78,30.04,8.0,SW,6.9,-,N/A,,Overcast,220,2013-05-18 15:32:00
10:53 AM,80.1,71.1,74,30.06,8.0,Variable,5.8,-,N/A,,Mostly Cloudy,0,2013-05-18 15:53:00
11:53 AM,82.0,72.0,71,30.05,9.0,South,8.1,-,N/A,,Overcast,190,2013-05-18 16:53:00
12:18 PM,82.4,71.6,70,30.02,10.0,SW,8.1,-,N/A,,Mostly Cloudy,220,2013-05-18 17:18:00
12:53 PM,84.0,71.1,65,30.03,10.0,South,9.2,-,N/A,,Mostly Cloudy,190,2013-05-18 17:53:00
2:53 PM,86.0,71.1,61,30.00,10.0,SSW,9.2,-,N/A,,Clear,200,2013-05-18 19:53:00
3:53 PM,87.1,71.1,59,29.99,10.0,South,10.4,-,N/A,,Clear,190,2013-05-18 20:53:00
4:53 PM,87.1,71.1,59,29.98,10.0,South,9.2,20.7,N/A,,Partly Cloudy,190,2013-05-18 21:53:00
5:53 PM,86.0,70.0,59,29.98,10.0,South,11.5,-,N/A,,Scattered Clouds,190,2013-05-18 22:53:00
6:53 PM,84.0,70.0,63,29.97,10.0,South,6.9,-,N/A,,Clear,190,2013-05-18 23:53:00
7:53 PM,80.1,70.0,71,29.98,10.0,South,5.8,-,N/A,,Clear,180,2013-05-19 00:53:00
8:53 PM,75.0,70.0,84,29.96,10.0,SE,3.5,-,N/A,,Clear,130,2013-05-19 01:53:00
9:53 PM,75.9,69.1,79,29.97,10.0,South,4.6,-,N/A,,Clear,180,2013-05-19 02:53:00
10:53 PM,75.9,69.1,79,29.97,10.0,South,3.5,-,N/A,,Clear,180,2013-05-19 03:53:00
11:53 PM,72.0,68.0,87,29.96,8.0,South,3.5,-,N/A,,Clear,170,2013-05-19 04:53:00